FLOCK 3P 55

Last updated on Sat Jun 17 2017 00:18:23 GMT+0000 (Coordinated Universal Time)

1 42041U 17008CX 17167.52623197 .00001236 00000-0 55932-4 0 9994 2 42041 97.4958 228.9618 0006567 211.5844 148.4999 15.22801787 18442

Satellite not in orbit

FLOCK 3P 55